Regional Weather Roundup
Issued by NWS

Current Version | Previous Version | Graphics & Text | Print | Product List | Glossary On
Versions: 1 2 3 4 5 6 7 8 9 10 11 12 13 14 15 16 17 18 19 20 21 22 23 24 25 26 27 28 29 30 31 32 33 34 35 36 37 38 39 40 41 42 43 44 45 46 47 48 49 50
661
ASUS42 KFFC 230910
RWRGA
WEATHER ROUNDUP FOR GEORGIA
NATIONAL WEATHER SERVICE PEACHTREE CITY GA
400 AM EST THU JAN 23 2020

NOTE: "FAIR" INDICATES FEW OR NO CLOUDS BELOW 12,000 FEET WITH NO
SIGNIFICANT WEATHER AND/OR OBSTRUCTIONS TO VISIBILITY.

* = USE WITH CAUTION. THE STATIONS MARKED WITH AN ASTERISK MAY NOT
REPORT WEATHER SUCH AS PRECIPITATION, FOG, OR THUNDER AND ARE NOT
QUALITY CONTROLLED BY NWS.

THE REMARK "TC" DENOTES TEMPERATURE READING IN DEGREES CELSIUS.

GAZ001>058-231000-
NORTH GEORGIA

CITY           SKY/WX    TMP DP  RH WIND       PRES   REMARKS
ATLANTA        CLOUDY    40  17  39 E12       30.23F WCI  33
ATHENS         FAIR      38  16  40 E9        30.28F WCI  31
CHAMBLEE       FAIR      38  15  39 E7        30.24F WCI  33
PEACHTREE CITY FAIR      42  17  36 E7        30.24F
ROME           FAIR      43  16  33 CALM      30.24F
WEST ATLANTA   FAIR      40  16  37 NE10      30.24F WCI  33
GAINESVILLE    FAIR      35  17  47 E10       30.28F WCI  27
CARTERSVILLE   FAIR      42  15  33 VRB6      30.25S


CITY           SKY/WX    TMP DP  RH WIND       PRES   REMARKS
DALTON*        FAIR      37  23  56 CALM      30.25F
LAWRENCEVILLE* FAIR      36  18  48 NE7       30.26F WCI  30
MARIETTA       MOCLDY    39  15  36 E8        30.23F WCI  34
KENNESAW*      MOCLDY    39  15  37 E12       30.24F WCI  32
CANTON*        FAIR      37  14  38 E6        30.26F WCI  33
BLAIRSVILLE*   FAIR      39  15  37 E9        30.24S WCI  32
$$

GAZ059>098-102>109-231000-
CENTRAL GEORGIA

CITY           SKY/WX    TMP DP  RH WIND       PRES   REMARKS
AUGUSTA-BUSH   FAIR      37  25  61 N6        30.28F WCI  32
AUGUSTA-DANIEL FAIR      40  19  43 NE6       30.29S
COLUMBUS       CLOUDY    44  19  36 E7        30.22S
MACON          MOCLDY    42  20  41 E6        30.24F
ROBINS AFB     CLEAR     41  20  42 E3        30.23F


CITY           SKY/WX    TMP DP  RH WIND       PRES   REMARKS
LAGRANGE*      CLOUDY    42  14  32 E6        30.22S
SYLVANIA*      FAIR      40  27  59 NE8       30.26F WCI  35
MILLEDGEVILLE* FAIR      41  23  48 NE3       30.27F
$$

GAZ099>101-110>166-231000-
SOUTH GEORGIA

CITY           SKY/WX    TMP DP  RH WIND       PRES   REMARKS
SAVANNAH       FAIR      42  33  70 N7        30.24S
VALDOSTA       FAIR      46  30  53 NE6       30.19F
ALMA           FAIR      41  29  62 VRB5      30.20S
ST SIMONS      CLOUDY    49  43  80 NE12      30.17F
FT STEWART     FAIR      41  31  66 N6        30.20F
ALBANY         CLOUDY    47  27  45 NE12      30.23F
HUNTER AFB     FAIR      43  33  67 NE6       30.21S
MOODY AFB      MOCLDY    45  30  55 NE8       30.17F
BRUNSWICK      MOCLDY    45  40  81 NE9       30.19F


CITY           SKY/WX    TMP DP  RH WIND       PRES   REMARKS
BAINBRIDGE*    FAIR      48  27  45 E12       30.18S
MOULTRIE*      FAIR      45  30  57 CALM      30.20S
VIDALIA*       FAIR      41  27  56 NE7       30.23S
WAYCROSS*      FAIR      43  25  49 NE5       30.20S
DOUGLAS*       FAIR      42  28  57 NE5       30.22S
$$




USA.gov is the U.S. government's official web portal to all federal, state and local government web resources and services.